ARIANE 42P DEB, 44509

Orbit data source: Space-Track

ARIANE 42P DEB, 44509 is space debris in LEO originally from a launch on Mon, 10 Aug 1992 UTC launched from the French Guiana (FRGUI). Debris objects in space refer to the collection of defunct objects orbiting the Earth. Examples of debris include non-operational satellites, rocket bodies, and fragments generated from explosions, collisions, or faulty payload assembly.

Loading next visibility...
Identifier
44509, 1992-052G
Orbit
LEO
Country
Flag of FRFR
Related business
Manufacturer
ArianeGroup
Mission
Spacecraft
Bus & Motor
Unknown
Mass
Unknown
Launch date (UTC)
1992-08-10 (33 years ago)
Launch vehicle
Unknown
Launch site
French Guiana (FRGUI)
Object type
Payload
Rocket body
Debris
Shape & HBR
Unknown shape, 0.1 m
Radar Cross Section
Small (<0.1 m²)

Expand to show TLE details & history
Last TLE update: 20 hours ago

TLE from 20 hours ago
0 ARIANE 42P DEB
1 44509U 92052G   25354.22093973  .00001158  00000-0  49513-2 0  9993
2 44509  66.0824 300.0335 0067414   1.5699 358.5518 12.85034201296958
Epoch: 2025-12-20T05:18Z
TLE epoch observation values (Epoch: 2025-12-20T05:18:09.192Z)
Latitude
-0.00003°
Longitude
131.44433°
Altitude
1,271.319 km
Speed
7.245 km/s
True Right ascension
20h 00m 08s
True Declination
0° 00' 00"
Sunlit
Object was in daylight at epoch
Visualization orbit readout
Latitude
Unknown
Longitude
Unknown
Altitude
Unknown
Speed
Unknown
Apparent Right ascension
Unknown
Apparent Declination
Unknown
Sunlit
N/A
Visualization observer readout
Local Sidereal Time
00:41:25
Azimuth
Unknown
Elevation
Unknown
Doppler factor
Unknown
Orbital elements
Apogee altitude
1,371.746 km
Perigee altitude
1,267.955 km
Semi-major axis
7,697.988 km
Eccentricity
0.00674
Inclination
66.0824°
RAAN
300.0335°
Arg. of periapsis
1.5699°
True anomaly
358.53211°
Mean anomaly
358.5518°
Eccentric anomaly
358.54197°
Mean motion
3.21349 °/min
Orbital period
112.03 mins
BSTAR
0.0049513
Loading maneuver chart data...
Computing Atmospheric mass density...
Loading historical data...
Loading historical data...
Loading historical data...
Loading historical data...
Loading historical data...
Loading historical data...
Loading historical data...

Documentation

Showing up to 5 results
|